ECJPA DAAG-LFMN

Flight info

Callsign ECJPA
Flight time 1h 47m
Altitude 19000
Route BOURI1C BOURI UG26 REQIN DCT BUKID DCT NEGAT DCT OMEDA M622 LONSU
Aircraft AT46/M-SDFGIRY/S

Departure

Time 2026-05-04 14:02
Airport Houari Boumediene Airport (DAAG)

Arrival

Time 2026-05-04 15:49
Airport Nice-Côte d'Azur Airport (LFMN)
Time Latitude Longitude Altitude Speed Heading
2026-05-04 13:52 36.69640 3.21634 74 ft 0 kts 111°
2026-05-04 13:59 36.69640 3.21635 74 ft 1 kts 111°
2026-05-04 13:59 36.69569 3.21725 72 ft 10 kts 152°
2026-05-04 14:00 36.69464 3.21781 73 ft 20 kts 163°
2026-05-04 14:00 36.69388 3.22018 75 ft 22 kts 72°
2026-05-04 14:00 36.69448 3.22122 75 ft 0 kts 50°
2026-05-04 14:01 36.69479 3.22171 71 ft 32 kts 53°
2026-05-04 14:01 36.70277 3.23406 367 ft 121 kts 43°
2026-05-04 14:02 36.70992 3.24058 740 ft 143 kts 32°
2026-05-04 14:02 36.71815 3.24941 1069 ft 162 kts 40°
2026-05-04 14:02 36.72699 3.25795 1622 ft 162 kts 17°
2026-05-04 14:02 36.73857 3.25970 1945 ft 176 kts
2026-05-04 14:03 36.75098 3.26161 2455 ft 183 kts
2026-05-04 14:03 36.76383 3.26448 2943 ft 192 kts 11°
2026-05-04 14:03 36.77717 3.26846 3426 ft 202 kts 15°
2026-05-04 14:03 36.79087 3.27333 4023 ft 207 kts 17°
2026-05-04 14:04 36.81900 3.28391 5322 ft 217 kts 16°
2026-05-04 14:04 36.83350 3.28941 5973 ft 219 kts 15°
2026-05-04 14:04 36.84813 3.29483 6575 ft 221 kts 13°
2026-05-04 14:05 36.87787 3.30542 7713 ft 225 kts 11°
2026-05-04 14:05 36.89297 3.31078 8321 ft 226 kts 11°
2026-05-04 14:05 36.90817 3.31623 8893 ft 228 kts 10°
2026-05-04 14:06 36.92352 3.32171 9409 ft 230 kts
2026-05-04 14:06 36.93897 3.32722 9926 ft 232 kts
2026-05-04 14:06 36.95452 3.33278 10417 ft 233 kts
2026-05-04 14:06 36.97008 3.33838 10908 ft 235 kts
2026-05-04 14:07 36.98586 3.34404 11392 ft 238 kts
2026-05-04 14:07 37.00182 3.34975 11880 ft 240 kts
2026-05-04 14:07 37.01796 3.35553 12386 ft 242 kts
2026-05-04 14:07 37.03426 3.36142 12885 ft 245 kts
2026-05-04 14:08 37.05071 3.36734 13390 ft 248 kts
2026-05-04 14:08 37.06791 3.37346 13527 ft 267 kts
2026-05-04 14:08 37.08646 3.37995 13551 ft 285 kts
2026-05-04 14:08 37.10604 3.38687 13578 ft 299 kts
2026-05-04 14:09 37.14730 3.40175 13640 ft 315 kts 13°
2026-05-04 14:09 37.16636 3.41637 13741 ft 329 kts 37°
2026-05-04 14:10 37.19536 3.46111 14108 ft 334 kts 58°
2026-05-04 14:10 37.20714 3.48628 14295 ft 334 kts 59°
2026-05-04 14:10 37.21906 3.51139 14477 ft 335 kts 58°
2026-05-04 14:10 37.23163 3.53599 14635 ft 335 kts 56°
2026-05-04 14:11 37.24457 3.56038 14794 ft 336 kts 56°
2026-05-04 14:11 37.26990 3.60924 15085 ft 337 kts 56°
2026-05-04 14:11 37.28282 3.63419 15226 ft 337 kts 56°
2026-05-04 14:12 37.29545 3.65863 15359 ft 338 kts 56°
2026-05-04 14:12 37.30827 3.68344 15488 ft 339 kts 56°
2026-05-04 14:12 37.33391 3.73311 15744 ft 339 kts 56°
2026-05-04 14:13 37.34672 3.75794 15887 ft 340 kts 56°
2026-05-04 14:13 37.35959 3.78293 16043 ft 341 kts 56°
2026-05-04 14:13 37.37248 3.80798 16203 ft 341 kts 56°
2026-05-04 14:13 37.38539 3.83308 16363 ft 342 kts 56°
2026-05-04 14:14 37.39833 3.85820 16505 ft 342 kts 56°
2026-05-04 14:14 37.42420 3.90860 16774 ft 343 kts 56°
2026-05-04 14:14 37.43719 3.93392 16918 ft 344 kts 56°
2026-05-04 14:15 37.46313 3.98458 17169 ft 345 kts 56°
2026-05-04 14:15 37.48914 4.03540 17413 ft 345 kts 56°
2026-05-04 14:16 37.51521 4.08645 17620 ft 347 kts 56°
2026-05-04 14:16 37.52825 4.11197 17724 ft 347 kts 56°
2026-05-04 14:17 37.55420 4.16290 17913 ft 348 kts 57°
2026-05-04 14:17 37.56727 4.18861 18059 ft 348 kts 56°
2026-05-04 14:17 37.59348 4.24015 18355 ft 350 kts 57°
2026-05-04 14:18 37.60659 4.26597 18476 ft 350 kts 57°
2026-05-04 14:18 37.63288 4.31781 18716 ft 351 kts 57°
2026-05-04 14:19 37.65927 4.36990 18897 ft 353 kts 57°
2026-05-04 14:19 37.67258 4.39618 18941 ft 356 kts 57°
2026-05-04 14:19 37.68575 4.42227 18975 ft 358 kts 57°
2026-05-04 14:19 37.69918 4.44886 18989 ft 360 kts 57°
2026-05-04 14:20 37.71267 4.47559 18999 ft 362 kts 57°
2026-05-04 14:20 37.72620 4.50244 19007 ft 363 kts 57°
2026-05-04 14:20 37.73981 4.52946 19007 ft 365 kts 57°
2026-05-04 14:21 37.76714 4.58377 19006 ft 367 kts 57°
2026-05-04 14:21 37.78085 4.61104 19007 ft 367 kts 57°
2026-05-04 14:21 37.79457 4.63837 19010 ft 368 kts 57°
2026-05-04 14:21 37.80830 4.66574 19005 ft 369 kts 57°
2026-05-04 14:22 37.82204 4.69313 19006 ft 369 kts 57°
2026-05-04 14:22 37.83577 4.72056 19003 ft 369 kts 57°
2026-05-04 14:22 37.84951 4.74800 19010 ft 369 kts 57°
2026-05-04 14:22 37.86323 4.77542 19007 ft 369 kts 57°
2026-05-04 14:23 37.89064 4.83032 19007 ft 369 kts 57°
2026-05-04 14:23 37.90418 4.85749 19010 ft 369 kts 57°
2026-05-04 14:23 37.91786 4.88492 19002 ft 369 kts 57°
2026-05-04 14:24 37.93156 4.91241 19002 ft 368 kts 57°
2026-05-04 14:24 37.94526 4.93986 19001 ft 368 kts 55°
2026-05-04 14:24 37.96136 4.96480 19005 ft 364 kts 44°
2026-05-04 14:24 37.97928 4.98749 19005 ft 363 kts 42°
2026-05-04 14:25 37.99733 5.00994 19010 ft 364 kts 41°
2026-05-04 14:25 38.03388 5.05441 19007 ft 364 kts 41°
2026-05-04 14:25 38.05218 5.07665 19010 ft 365 kts 41°
2026-05-04 14:26 38.07031 5.09868 19007 ft 365 kts 41°
2026-05-04 14:26 38.08867 5.12100 19006 ft 365 kts 41°
2026-05-04 14:26 38.10699 5.14329 19006 ft 364 kts 41°
2026-05-04 14:26 38.12532 5.16561 19006 ft 364 kts 41°
2026-05-04 14:27 38.14362 5.18792 19011 ft 364 kts 41°
2026-05-04 14:27 38.16192 5.21021 19010 ft 364 kts 41°
2026-05-04 14:27 38.18024 5.23256 19006 ft 364 kts 41°
2026-05-04 14:27 38.19854 5.25493 19009 ft 364 kts 41°
2026-05-04 14:28 38.21681 5.27726 19007 ft 364 kts 41°
2026-05-04 14:28 38.23510 5.29961 19008 ft 364 kts 41°
2026-05-04 14:28 38.25332 5.32195 19005 ft 364 kts 41°
2026-05-04 14:28 38.27136 5.34402 19009 ft 364 kts 41°
2026-05-04 14:29 38.30782 5.38873 19009 ft 364 kts 41°
2026-05-04 14:29 38.34421 5.43345 19006 ft 363 kts 41°
2026-05-04 14:30 38.36238 5.45577 19008 ft 363 kts 41°
2026-05-04 14:30 38.38060 5.47819 19008 ft 363 kts 42°
2026-05-04 14:30 38.41692 5.52296 19009 ft 363 kts 42°
2026-05-04 14:31 38.43508 5.54534 19008 ft 363 kts 42°
2026-05-04 14:31 38.47135 5.59011 19005 ft 362 kts 42°
2026-05-04 14:32 38.50733 5.63458 19005 ft 362 kts 42°
2026-05-04 14:32 38.52543 5.65697 19003 ft 362 kts 42°
2026-05-04 14:32 38.54349 5.67935 19007 ft 361 kts 42°
2026-05-04 14:32 38.56155 5.70173 19004 ft 361 kts 42°
2026-05-04 14:33 38.57955 5.72406 19006 ft 361 kts 42°
2026-05-04 14:33 38.59758 5.74643 19008 ft 361 kts 42°
2026-05-04 14:33 38.61558 5.76877 19005 ft 361 kts 42°
2026-05-04 14:33 38.63362 5.79118 19007 ft 361 kts 42°
2026-05-04 14:34 38.65157 5.81352 19005 ft 361 kts 42°
2026-05-04 14:34 38.66952 5.83590 19006 ft 360 kts 42°
2026-05-04 14:34 38.68749 5.85831 19005 ft 360 kts 42°
2026-05-04 14:34 38.70543 5.88067 19005 ft 360 kts 43°
2026-05-04 14:35 38.72334 5.90301 19005 ft 360 kts 43°
2026-05-04 14:35 38.74128 5.92540 19005 ft 360 kts 43°
2026-05-04 14:35 38.75920 5.94778 19006 ft 360 kts 43°
2026-05-04 14:35 38.77708 5.97014 19005 ft 360 kts 43°
2026-05-04 14:36 38.79498 5.99257 19005 ft 359 kts 43°
2026-05-04 14:36 38.81261 6.01466 19005 ft 359 kts 43°
2026-05-04 14:36 38.83044 6.03701 19000 ft 359 kts 43°
2026-05-04 14:36 38.84826 6.05934 19000 ft 358 kts 43°
2026-05-04 14:37 38.86608 6.08170 19004 ft 358 kts 43°
2026-05-04 14:37 38.88388 6.10405 19003 ft 358 kts 43°
2026-05-04 14:37 38.90166 6.12640 19000 ft 357 kts 43°
2026-05-04 14:37 38.91943 6.14875 19003 ft 357 kts 43°
2026-05-04 14:38 38.93715 6.17107 19000 ft 357 kts 43°
2026-05-04 14:38 38.95489 6.19344 19002 ft 357 kts 43°
2026-05-04 14:38 38.97263 6.21579 19003 ft 357 kts 43°
2026-05-04 14:38 38.99037 6.23811 19001 ft 356 kts 42°
2026-05-04 14:39 39.01033 6.25612 19002 ft 350 kts 24°
2026-05-04 14:39 39.03273 6.26784 19001 ft 346 kts 15°
2026-05-04 14:39 39.05530 6.27733 19002 ft 345 kts 14°
2026-05-04 14:40 39.10070 6.29803 19001 ft 348 kts 17°
2026-05-04 14:40 39.12328 6.30936 19002 ft 348 kts 17°
2026-05-04 14:40 39.14581 6.32058 18995 ft 348 kts 17°
2026-05-04 14:40 39.16844 6.33180 18999 ft 348 kts 17°
2026-05-04 14:41 39.19109 6.34288 18994 ft 348 kts 16°
2026-05-04 14:41 39.21369 6.35385 18999 ft 348 kts 16°
2026-05-04 14:41 39.25902 6.37594 18996 ft 348 kts 16°
2026-05-04 14:42 39.30423 6.39813 18995 ft 348 kts 16°
2026-05-04 14:42 39.32686 6.40924 18994 ft 347 kts 16°
2026-05-04 14:42 39.34947 6.42034 18994 ft 347 kts 16°
2026-05-04 14:43 39.37198 6.43139 18993 ft 347 kts 16°
2026-05-04 14:43 39.39455 6.44248 18992 ft 346 kts 16°
2026-05-04 14:43 39.41703 6.45353 18996 ft 346 kts 16°
2026-05-04 14:43 39.43956 6.46463 18994 ft 346 kts 15°
2026-05-04 14:44 39.46207 6.47571 18991 ft 346 kts 16°
2026-05-04 14:44 39.48456 6.48680 18988 ft 345 kts 15°
2026-05-04 14:44 39.50703 6.49788 18990 ft 345 kts 16°
2026-05-04 14:44 39.52942 6.50893 18993 ft 345 kts 15°
2026-05-04 14:45 39.55156 6.51986 18988 ft 345 kts 16°
2026-05-04 14:45 39.57399 6.53094 18986 ft 344 kts 16°
2026-05-04 14:45 39.59640 6.54202 18990 ft 344 kts 16°
2026-05-04 14:45 39.61872 6.55308 18990 ft 344 kts 16°
2026-05-04 14:46 39.64110 6.56417 18987 ft 344 kts 16°
2026-05-04 14:46 39.66340 6.57521 18989 ft 344 kts 16°
2026-05-04 14:46 39.68576 6.58631 18990 ft 344 kts 16°
2026-05-04 14:46 39.70811 6.59740 18990 ft 343 kts 16°
2026-05-04 14:47 39.72289 6.60474 18992 ft 343 kts 16°
2026-05-04 14:47 39.74523 6.61583 18991 ft 343 kts 16°
2026-05-04 14:47 39.76749 6.62690 18989 ft 343 kts 16°
2026-05-04 14:47 39.78981 6.63801 18989 ft 343 kts 16°
2026-05-04 14:48 39.81212 6.64912 18984 ft 343 kts 16°
2026-05-04 14:48 39.83442 6.66024 18987 ft 343 kts 16°
2026-05-04 14:48 39.85665 6.67132 18989 ft 343 kts 16°
2026-05-04 14:48 39.87894 6.68244 18991 ft 343 kts 16°
2026-05-04 14:49 39.90124 6.69357 18990 ft 343 kts 16°
2026-05-04 14:49 39.92345 6.70467 18989 ft 343 kts 16°
2026-05-04 14:49 39.94574 6.71581 18986 ft 343 kts 16°
2026-05-04 14:49 39.96794 6.72692 18988 ft 343 kts 16°
2026-05-04 14:50 39.99022 6.73808 18987 ft 343 kts 16°
2026-05-04 14:50 40.01250 6.74924 18986 ft 343 kts 16°
2026-05-04 14:50 40.03470 6.76036 18990 ft 343 kts 16°
2026-05-04 14:50 40.05704 6.77157 18986 ft 343 kts 16°
2026-05-04 14:51 40.07924 6.78271 18986 ft 342 kts 17°
2026-05-04 14:51 40.10150 6.79390 18985 ft 342 kts 17°
2026-05-04 14:51 40.12374 6.80510 18990 ft 342 kts 17°
2026-05-04 14:51 40.14592 6.81625 18987 ft 342 kts 17°
2026-05-04 14:52 40.16815 6.82744 18993 ft 342 kts 17°
2026-05-04 14:52 40.19030 6.83861 18988 ft 342 kts 17°
2026-05-04 14:52 40.21252 6.84982 18988 ft 342 kts 17°
2026-05-04 14:52 40.23473 6.86102 18989 ft 342 kts 17°
2026-05-04 14:53 40.25694 6.87223 18990 ft 342 kts 17°
2026-05-04 14:53 40.27884 6.88329 18987 ft 342 kts 17°
2026-05-04 14:53 40.30104 6.89452 18989 ft 342 kts 17°
2026-05-04 14:53 40.32316 6.90571 18989 ft 341 kts 17°
2026-05-04 14:54 40.34536 6.91696 18989 ft 341 kts 17°
2026-05-04 14:54 40.36747 6.92816 18991 ft 341 kts 17°
2026-05-04 14:54 40.38966 6.93940 18989 ft 341 kts 17°
2026-05-04 14:54 40.41177 6.95062 18992 ft 341 kts 17°
2026-05-04 14:55 40.43396 6.96189 18991 ft 342 kts 17°
2026-05-04 14:55 40.45615 6.97316 18994 ft 342 kts 17°
2026-05-04 14:55 40.47828 6.98442 18992 ft 342 kts 17°
2026-05-04 14:55 40.50048 6.99572 18992 ft 342 kts 17°
2026-05-04 14:56 40.52269 7.00703 18994 ft 342 kts 17°
2026-05-04 14:56 40.54490 7.01834 18993 ft 342 kts 17°
2026-05-04 14:56 40.56703 7.02963 18995 ft 342 kts 17°
2026-05-04 14:56 40.58924 7.04096 18992 ft 342 kts 17°
2026-05-04 14:57 40.61137 7.05226 18995 ft 342 kts 17°
2026-05-04 14:57 40.63357 7.06361 18994 ft 342 kts 17°
2026-05-04 14:57 40.65578 7.07497 18995 ft 342 kts 18°
2026-05-04 14:57 40.67800 7.08633 18993 ft 342 kts 18°
2026-05-04 14:58 40.70015 7.09768 18992 ft 342 kts 18°
2026-05-04 14:58 40.72209 7.10891 18994 ft 343 kts 18°
2026-05-04 14:58 40.74434 7.12032 18996 ft 343 kts 18°
2026-05-04 14:58 40.76660 7.13173 18998 ft 343 kts 18°
2026-05-04 14:59 40.78888 7.14318 19005 ft 344 kts 18°
2026-05-04 14:59 40.81121 7.15468 18996 ft 344 kts 18°
2026-05-04 14:59 40.85584 7.17764 18992 ft 344 kts 18°
2026-05-04 15:00 40.87818 7.18914 18995 ft 344 kts 18°
2026-05-04 15:00 40.89972 7.20253 18996 ft 345 kts 31°
2026-05-04 15:00 40.91828 7.22299 19001 ft 349 kts 43°
2026-05-04 15:01 40.95198 7.26960 19004 ft 351 kts 45°
2026-05-04 15:01 40.96928 7.29240 19000 ft 351 kts 42°
2026-05-04 15:01 40.98698 7.31464 18999 ft 350 kts 42°
2026-05-04 15:01 41.00461 7.33696 19003 ft 350 kts 42°
2026-05-04 15:02 41.02222 7.35925 19001 ft 350 kts 42°
2026-05-04 15:02 41.03976 7.38160 19006 ft 350 kts 43°
2026-05-04 15:02 41.05724 7.40404 19000 ft 350 kts 43°
2026-05-04 15:02 41.07473 7.42657 19008 ft 350 kts 43°
2026-05-04 15:03 41.09198 7.44880 19004 ft 350 kts 43°
2026-05-04 15:03 41.10947 7.47129 19008 ft 350 kts 43°
2026-05-04 15:03 41.12693 7.49374 19010 ft 350 kts 43°
2026-05-04 15:03 41.14442 7.51625 19011 ft 350 kts 43°
2026-05-04 15:04 41.16194 7.53881 19012 ft 350 kts 43°
2026-05-04 15:04 41.17939 7.56133 19010 ft 350 kts 43°
2026-05-04 15:04 41.19685 7.58388 19009 ft 350 kts 43°
2026-05-04 15:04 41.21430 7.60642 19014 ft 350 kts 43°
2026-05-04 15:05 41.23168 7.62891 19013 ft 350 kts 43°
2026-05-04 15:05 41.24914 7.65149 19013 ft 349 kts 43°
2026-05-04 15:05 41.26654 7.67402 19013 ft 349 kts 43°
2026-05-04 15:05 41.28393 7.69656 19016 ft 349 kts 43°
2026-05-04 15:06 41.30132 7.71910 19029 ft 350 kts 43°
2026-05-04 15:06 41.31876 7.74174 19021 ft 350 kts 43°
2026-05-04 15:06 41.33619 7.76440 19022 ft 350 kts 44°
2026-05-04 15:07 41.37101 7.80971 19015 ft 350 kts 43°
2026-05-04 15:07 41.38846 7.83242 19013 ft 350 kts 43°
2026-05-04 15:07 41.40571 7.85470 19016 ft 348 kts 41°
2026-05-04 15:07 41.42582 7.87214 19019 ft 344 kts 24°
2026-05-04 15:08 41.44790 7.88397 19020 ft 342 kts 17°
2026-05-04 15:08 41.47041 7.89448 19018 ft 342 kts 17°
2026-05-04 15:08 41.49278 7.90546 19007 ft 343 kts 19°
2026-05-04 15:08 41.51490 7.91738 19012 ft 344 kts 20°
2026-05-04 15:09 41.53710 7.92959 19029 ft 344 kts 20°
2026-05-04 15:09 41.55934 7.94156 19031 ft 345 kts 19°
2026-05-04 15:09 41.58163 7.95352 19027 ft 346 kts 20°
2026-05-04 15:10 41.62628 7.97762 19017 ft 346 kts 20°
2026-05-04 15:10 41.64856 7.98965 19028 ft 346 kts 20°
2026-05-04 15:10 41.69319 8.01377 19017 ft 345 kts 20°
2026-05-04 15:11 41.71552 8.02586 19019 ft 345 kts 20°
2026-05-04 15:11 41.73780 8.03791 19029 ft 345 kts 20°
2026-05-04 15:11 41.76005 8.04999 19034 ft 345 kts 20°
2026-05-04 15:11 41.78226 8.06203 19032 ft 345 kts 20°
2026-05-04 15:12 41.80447 8.07408 19032 ft 345 kts 20°
2026-05-04 15:12 41.82668 8.08615 19038 ft 344 kts 20°
2026-05-04 15:12 41.84887 8.09822 19035 ft 344 kts 20°
2026-05-04 15:12 41.87106 8.11028 19039 ft 344 kts 20°
2026-05-04 15:13 41.89297 8.12221 19032 ft 344 kts 20°
2026-05-04 15:13 41.91517 8.13430 19025 ft 344 kts 20°
2026-05-04 15:13 41.93733 8.14637 19025 ft 344 kts 20°
2026-05-04 15:13 41.95951 8.15848 19041 ft 344 kts 20°
2026-05-04 15:14 41.98167 8.17058 19038 ft 344 kts 20°
2026-05-04 15:14 42.00380 8.18271 19040 ft 344 kts 20°
2026-05-04 15:14 42.02597 8.19480 19037 ft 344 kts 20°
2026-05-04 15:14 42.04815 8.20694 19031 ft 344 kts 20°
2026-05-04 15:15 42.07036 8.21912 19032 ft 344 kts 20°
2026-05-04 15:15 42.09250 8.23123 19032 ft 344 kts 20°
2026-05-04 15:15 42.11469 8.24342 19035 ft 344 kts 20°
2026-05-04 15:16 42.15871 8.26758 19033 ft 344 kts 20°
2026-05-04 15:16 42.18085 8.27975 19031 ft 344 kts 20°
2026-05-04 15:16 42.22512 8.30413 19037 ft 343 kts 20°
2026-05-04 15:17 42.24722 8.31632 19037 ft 343 kts 20°
2026-05-04 15:17 42.29143 8.34065 19038 ft 343 kts 20°
2026-05-04 15:17 42.31362 8.35228 19033 ft 341 kts 14°
2026-05-04 15:18 42.33691 8.35408 19029 ft 334 kts 347°
2026-05-04 15:18 42.35820 8.34310 19058 ft 326 kts 327°
2026-05-04 15:18 42.37762 8.32718 19069 ft 327 kts 324°
2026-05-04 15:19 42.41689 8.29503 19030 ft 332 kts 327°
2026-05-04 15:19 42.43717 8.28003 19027 ft 333 kts 328°
2026-05-04 15:19 42.47761 8.24981 19024 ft 331 kts 328°
2026-05-04 15:20 42.49771 8.23466 19020 ft 330 kts 327°
2026-05-04 15:20 42.51779 8.21955 19029 ft 330 kts 327°
2026-05-04 15:20 42.53779 8.20447 19030 ft 330 kts 327°
2026-05-04 15:20 42.55792 8.18928 19024 ft 330 kts 327°
2026-05-04 15:21 42.57799 8.17415 19031 ft 330 kts 327°
2026-05-04 15:21 42.59804 8.15900 19029 ft 330 kts 327°
2026-05-04 15:21 42.63790 8.12886 19032 ft 330 kts 327°
2026-05-04 15:22 42.65794 8.11367 18958 ft 332 kts 327°
2026-05-04 15:22 42.67838 8.09818 18790 ft 337 kts 327°
2026-05-04 15:22 42.71934 8.06711 18718 ft 336 kts 327°
2026-05-04 15:23 42.73968 8.05164 18725 ft 334 kts 327°
2026-05-04 15:23 42.75964 8.03667 18638 ft 320 kts 328°
2026-05-04 15:23 42.78057 8.02744 18307 ft 317 kts 349°
2026-05-04 15:23 42.80261 8.02592 17885 ft 318 kts 360°
2026-05-04 15:24 42.84661 8.03354 17047 ft 318 kts
2026-05-04 15:24 42.89033 8.04136 16229 ft 315 kts
2026-05-04 15:25 42.91212 8.04443 15828 ft 314 kts
2026-05-04 15:25 42.93372 8.04764 15434 ft 313 kts
2026-05-04 15:25 42.95531 8.05088 15048 ft 312 kts
2026-05-04 15:26 42.99814 8.05731 14287 ft 310 kts
2026-05-04 15:26 43.01983 8.06057 13909 ft 309 kts
2026-05-04 15:26 43.06222 8.06693 13082 ft 308 kts
2026-05-04 15:27 43.08345 8.07015 12669 ft 306 kts
2026-05-04 15:27 43.12576 8.07654 11853 ft 304 kts
2026-05-04 15:28 43.16761 8.08287 11064 ft 301 kts
2026-05-04 15:28 43.18839 8.08602 10675 ft 300 kts
2026-05-04 15:28 43.22970 8.09226 9919 ft 297 kts
2026-05-04 15:29 43.25019 8.09535 9518 ft 295 kts
2026-05-04 15:30 43.31997 8.06244 7830 ft 285 kts 296°
2026-05-04 15:30 43.34682 7.99027 6736 ft 282 kts 297°
2026-05-04 15:31 43.36625 7.94349 6003 ft 281 kts 298°
2026-05-04 15:31 43.37594 7.92012 5632 ft 281 kts 298°
2026-05-04 15:32 43.40463 7.85052 4556 ft 277 kts 299°
2026-05-04 15:32 43.41740 7.81095 4114 ft 267 kts 280°
2026-05-04 15:33 43.42082 7.75398 4038 ft 250 kts 272°
2026-05-04 15:34 43.42421 7.69113 4009 ft 243 kts 274°
2026-05-04 15:34 43.42572 7.66839 4011 ft 241 kts 275°
2026-05-04 15:34 43.42870 7.62261 4019 ft 240 kts 274°
2026-05-04 15:35 43.43164 7.57682 4010 ft 240 kts 274°
2026-05-04 15:35 43.43313 7.55396 4008 ft 240 kts 275°
2026-05-04 15:35 43.43458 7.53112 4010 ft 240 kts 274°
2026-05-04 15:36 43.43747 7.48527 4021 ft 242 kts 275°
2026-05-04 15:36 43.43889 7.46297 4031 ft 243 kts 274°
2026-05-04 15:36 43.44037 7.43965 4068 ft 247 kts 275°
2026-05-04 15:37 43.44187 7.41584 4019 ft 252 kts 275°
2026-05-04 15:37 43.44346 7.39189 4000 ft 249 kts 275°
2026-05-04 15:37 43.44502 7.36833 3999 ft 246 kts 275°
2026-05-04 15:37 43.44658 7.34500 4014 ft 244 kts 275°
2026-05-04 15:38 43.44809 7.32173 4017 ft 244 kts 275°
2026-05-04 15:38 43.44949 7.29855 4014 ft 243 kts 275°
2026-05-04 15:38 43.45093 7.27539 4024 ft 243 kts 275°
2026-05-04 15:38 43.45231 7.25206 4049 ft 246 kts 275°
2026-05-04 15:39 43.45376 7.22845 4047 ft 250 kts 275°
2026-05-04 15:39 43.45523 7.20452 4048 ft 252 kts 275°
2026-05-04 15:39 43.45824 7.15568 4039 ft 260 kts 275°
2026-05-04 15:40 43.45974 7.13073 4028 ft 262 kts 275°
2026-05-04 15:40 43.46122 7.10563 4022 ft 262 kts 275°
2026-05-04 15:40 43.46267 7.08098 3993 ft 261 kts 275°
2026-05-04 15:40 43.46417 7.05638 4005 ft 255 kts 275°
2026-05-04 15:41 43.46560 7.03226 4025 ft 252 kts 275°
2026-05-04 15:41 43.46704 7.00831 4022 ft 250 kts 275°
2026-05-04 15:41 43.46849 6.98456 3999 ft 248 kts 275°
2026-05-04 15:41 43.46998 6.96123 3989 ft 241 kts 278°
2026-05-04 15:42 43.47650 6.94072 4010 ft 233 kts 315°
2026-05-04 15:42 43.48974 6.92935 4037 ft 222 kts 351°
2026-05-04 15:42 43.50451 6.93087 4033 ft 211 kts 27°
2026-05-04 15:42 43.51757 6.94007 4047 ft 212 kts 33°
2026-05-04 15:43 43.52796 6.95344 4036 ft 205 kts 66°
2026-05-04 15:43 43.53036 6.97248 4016 ft 203 kts 89°
2026-05-04 15:43 43.53042 6.99165 4019 ft 198 kts 91°
2026-05-04 15:43 43.53005 7.00889 3985 ft 164 kts 92°
2026-05-04 15:44 43.52965 7.02389 3718 ft 150 kts 93°
2026-05-04 15:44 43.53213 7.03734 3412 ft 144 kts 59°
2026-05-04 15:44 43.53822 7.04798 3185 ft 138 kts 55°
2026-05-04 15:44 43.54453 7.05714 3002 ft 120 kts 49°
2026-05-04 15:45 43.55018 7.06436 2848 ft 110 kts 49°
2026-05-04 15:45 43.55606 7.07217 2714 ft 122 kts 50°
2026-05-04 15:45 43.56210 7.08078 2538 ft 128 kts 51°
2026-05-04 15:45 43.56841 7.08959 2356 ft 129 kts 49°
2026-05-04 15:46 43.57483 7.09829 2201 ft 130 kts 48°
2026-05-04 15:46 43.58134 7.10720 2030 ft 134 kts 49°
2026-05-04 15:46 43.58804 7.11628 1838 ft 135 kts 49°
2026-05-04 15:46 43.59463 7.12542 1654 ft 133 kts 50°
2026-05-04 15:47 43.60112 7.13439 1455 ft 134 kts 49°
2026-05-04 15:47 43.60774 7.14341 1254 ft 133 kts 49°
2026-05-04 15:47 43.61425 7.15233 1076 ft 131 kts 50°
2026-05-04 15:47 43.62069 7.16111 893 ft 130 kts 51°
2026-05-04 15:48 43.62709 7.16990 722 ft 128 kts 51°
2026-05-04 15:48 43.63320 7.17862 577 ft 127 kts 52°
2026-05-04 15:48 43.64575 7.19564 235 ft 124 kts 52°
2026-05-04 15:49 43.65174 7.20408 68 ft 121 kts 51°
2026-05-04 15:49 43.65642 7.21063 23 ft 44 kts 46°
2026-05-04 15:49 43.65698 7.21142 20 ft 1 kts 43°
2026-05-04 15:49 43.65802 7.21272 20 ft 36 kts 42°
2026-05-04 15:50 43.65995 7.21547 18 ft 29 kts 35°
2026-05-04 15:50 43.66118 7.21702 18 ft 21 kts 45°
2026-05-04 15:50 43.66222 7.21737 18 ft 17 kts 323°
2026-05-04 15:50 43.66324 7.21600 18 ft 21 kts 312°
2026-05-04 15:51 43.66410 7.21496 18 ft 8 kts 319°
2026-05-04 15:51 43.66412 7.21495 18 ft 0 kts 319°